Fort Rucker / Ozark, AL

9:16 PM CDT on April 23, 2017 (GMT -0500)
Fort Rucker / Ozark

Weather History for KLOR - September, 2013

Change the Weather History Date:

Wednesday, September 4, 2013

  Actual Average (KOZR) Record (KOZR)
Temperature  
Mean Temperature 80 °F -  
Max Temperature 91 °F 85 °F 95 °F (1999)
Min Temperature 68 °F 66 °F 66 °F (1996)
Cooling Degree Days 14    
Growing Degree Days 30 (Base 50)    
Moisture  
Dew Point 71 °F    
Average Humidity 85    
Maximum Humidity 100    
Minimum Humidity 52    
Precipitation  
Precipitation 0.00 in - - ()
Sea Level Pressure  
Sea Level Pressure 30.03 in    
Wind  
Wind Speed 1 mph (SW)    
Max Wind Speed 7 mph    
Max Gust Speed -    
Visibility 6 miles    
Events      
Averages and records for this station are not official NWS values.
T = Trace of Precipitation, MM = Missing Value Source: NWS Daily Summary

Daily Weather History Graph

Daily Weather History Graph

Search for Another Location

Airport or City:

Trip Planner

Search our weather history database for the weather conditions in past years. The results will help you decide how hot, cold, wet, or windy it might be!

Date:

Astronomy

Sep. 04, 2013 Rise Set
Actual Time 6:20 AM CDT 7:02 PM CDT
Civil Twilight 5:56 AM CDT 7:27 PM CDT
Nautical Twilight 5:27 AM CDT 7:55 PM CDT
Astronomical Twilight 4:57 AM CDT 8:25 PM CDT
Moon 5:32 AM CDT (9/4) 6:24 PM CDT (9/4)
Length of Visible Light 13h 30m
Length of Day
12h 41m
Waning Crescent, 1% of the Moon is Illuminated
Sep 4
Waning Crescent
Sep 5
New
Sep 12
First Quarter
Sep 19
Full
Sep 26
Last Quarter

Hourly Weather History & Observations

Time (CDT) Temp. Heat Index Dew Point Humidity Pressure Visibility Wind Dir Wind Speed Gust Speed Precip Events Conditions
12:53 AM 71.1 °F - 70.0 °F 96% 29.98 in 7.0 mi Calm Calm - N/A   Clear
1:53 AM 70.0 °F - 69.1 °F 97% 29.97 in 6.0 mi Calm Calm - N/A   Clear
2:53 AM 70.0 °F - 69.1 °F 97% 29.98 in 5.0 mi Calm Calm - N/A   Clear
3:53 AM 69.1 °F - 68.0 °F 96% 29.98 in 4.0 mi Calm Calm - N/A   Clear
4:53 AM 69.1 °F - 68.0 °F 96% 29.98 in 4.0 mi Calm Calm - N/A   Clear
5:23 AM 69.8 °F - 66.2 °F 88% 29.99 in 6.0 mi Calm Calm - N/A   Scattered Clouds
5:53 AM 68.0 °F - 66.9 °F 96% 30.00 in 5.0 mi Calm Calm - N/A   Scattered Clouds
6:00 AM 68.0 °F - 66.2 °F 94% 30.01 in 6.0 mi Calm Calm - N/A   Mostly Cloudy
6:34 AM 68.0 °F - 66.2 °F 94% 30.02 in 1.5 mi Calm Calm - N/A   Overcast
6:43 AM 68.0 °F - 66.2 °F 94% 30.02 in 0.8 mi Calm Calm - N/A   Mist
6:53 AM 68.0 °F - 66.9 °F 96% 30.02 in 0.8 mi Calm Calm - N/A   Mist
7:00 AM 69.8 °F - 68.0 °F 94% 30.04 in 2.0 mi Calm Calm - N/A   Overcast
7:08 AM 69.8 °F - 68.0 °F 94% 30.04 in 4.0 mi Calm Calm - N/A   Overcast
7:53 AM 72.0 °F - 71.1 °F 97% 30.04 in 5.0 mi Calm Calm - N/A   Overcast
8:24 AM 73.4 °F - 71.6 °F 94% 30.06 in 2.5 mi Calm Calm - N/A   Overcast
8:37 AM 75.2 °F - 73.4 °F 94% 30.06 in 1.8 mi Variable 3.5 mph - N/A   Overcast
8:42 AM 75.2 °F - 73.4 °F 94% 30.06 in 3.0 mi Variable 4.6 mph - N/A   Overcast
8:53 AM 75.0 °F - 73.0 °F 94% 30.05 in 2.5 mi Variable 3.5 mph - N/A   Overcast
9:03 AM 73.4 °F - 73.4 °F 100% 30.06 in 1.2 mi Calm Calm - N/A   Overcast
9:12 AM 75.2 °F - 73.4 °F 94% 30.07 in 3.0 mi Calm Calm - N/A   Overcast
9:32 AM 78.8 °F - 73.4 °F 83% 30.07 in 8.0 mi Calm Calm - N/A   Overcast
9:53 AM 80.1 °F 84.5 °F 73.9 °F 81% 30.07 in 10.0 mi Variable 3.5 mph - N/A   Scattered Clouds
10:53 AM 84.9 °F 91.4 °F 73.0 °F 67% 30.06 in 10.0 mi WSW 4.6 mph - N/A   Clear
11:53 AM 86.0 °F 93.0 °F 73.0 °F 65% 30.06 in 10.0 mi Variable 3.5 mph - N/A   Partly Cloudy
12:53 PM 87.1 °F 94.5 °F 73.0 °F 63% 30.04 in 10.0 mi Variable 4.6 mph - N/A   Scattered Clouds
1:53 PM 89.1 °F 97.0 °F 73.0 °F 59% 30.04 in 10.0 mi SW 3.5 mph - N/A   Scattered Clouds
2:53 PM 91.0 °F 99.3 °F 73.0 °F 55% 30.01 in 10.0 mi West 6.9 mph - N/A   Clear
3:53 PM 90.0 °F 96.4 °F 71.1 °F 54% 29.99 in 10.0 mi SW 5.8 mph - N/A   Partly Cloudy
4:53 PM 91.0 °F 97.6 °F 71.1 °F 52% 29.99 in 10.0 mi Calm Calm - N/A   Clear
5:53 PM 89.1 °F 95.0 °F 71.1 °F 55% 30.00 in 10.0 mi SW 4.6 mph - N/A   Clear
6:53 PM 84.9 °F 90.7 °F 72.0 °F 65% 30.01 in 10.0 mi SW 4.6 mph - N/A   Clear
7:53 PM 80.1 °F 85.1 °F 75.0 °F 85% 30.04 in 10.0 mi South 4.6 mph - N/A   Clear
8:53 PM 79.0 °F - 75.0 °F 88% 30.06 in 10.0 mi South 3.5 mph - N/A   Clear
9:53 PM 77.0 °F - 75.0 °F 94% 30.07 in 9.0 mi Calm Calm - N/A   Clear
10:53 PM 78.1 °F - 75.0 °F 90% 30.08 in 9.0 mi Calm Calm - N/A   Scattered Clouds
11:53 PM 75.9 °F - 73.9 °F 94% 30.06 in 7.0 mi Calm Calm - N/A   Clear